Погода в Куме

Австралия     36°14′04″S   149°07′37″E
темп.,
°C
ветер,
м/с
пор.,
м/с
влажн.,
%
обл.,
%
осадки,
мм/ч
давл.,
гПа
погр.,
м
6 мая, чт
чт601:00+10ююз51197100 2.3 1019694
04:00+11ююв3997100 7.2 1019902
07:00+12вюв3997100 2.0 1020862
10:00+11юв41191100 2.4 1020802
13:00+12ююв41294100 1.4 1018830
16:00+12юв3896100 3.9 1017623
19:00+12вюв3894100 1.5 1018530
22:00+10ююв229754 1.6 101832
7 мая, пт
пт701:00+10ююз2495100 0.0 1016141
04:00+10ююз2497100 0.1 1015144
07:00+9ююз229766 0.0 101538
10:00+14ююз238142 0.0 1013504
13:00+16ююз336688 0.1 10101126
16:00+16ююз24685 0.3 1009421
19:00+10ююз11905 0.0 101111
22:00+9зсз019195 0.0 101210
8 мая, сб
сб801:00+8ссз11932 0.0 101110
04:00+7ссв019610 0.1 101210
07:00+7ссз21909 0.0 101422
10:00+14зсз365718 0.0 1013709
13:00+17з574251 0.0 10111857
16:00+15зсз485348 0.0 1013731
19:00+9зсз2375100 0.0 101648
22:00+7св118536 0.0 101910
9 мая, вс
вс901:00+6св119217 0.0 102010
04:00+5ссв11945 0.0 102110
07:00+5св11955 0.0 102210
10:00+13ссз136769 0.0 1021378
13:00+17ссз244997 0.0 10171596
16:00+15ссв256499 0.0 1016159
19:00+9ссв119121 0.1 101912
22:00+7с119435 0.1 101911
10 мая, пн
пн1001:00+6с119584 0.0 101713
04:00+6с119779 0.0 101514
07:00+5с119614 0.0 101522
10:00+11ссз39795 0.0 1011542
13:00+15сз7156080 0.1 10061681
16:00+12сз71773100 0.2 10041649
19:00+10зсз71882100 0.7 10041587
22:00+6зсз7187748 0.8 10061492